Weather History for Glendive, MT

Change the Weather History Date:

Friday, February 22, 2013

  Actual Average Record
Temperature  
Mean Temperature 28 °F -  
Max Temperature 44 °F 30 °F 66 °F (2002)
Min Temperature 12 °F 11 °F -5 °F (2011)
Degree Days  
Heating Degree Days 37    
Moisture  
Dew Point 17 °F    
Average Humidity 67    
Maximum Humidity 93    
Minimum Humidity 36    
Precipitation  
Precipitation 0.00 in - - ()
Sea Level Pressure  
Sea Level Pressure 29.81 in    
Wind  
Wind Speed 7 mph (SSW)    
Max Wind Speed 14 mph    
Max Gust Speed 16 mph    
Visibility 10 miles    
Events      
Averages and records for this station are not official NWS values.
T = Trace of Precipitation, MM = Missing Value Source: NWS Daily Summary

Daily Weather History Graph

Daily Weather History Graph

Search for Another Location

Airport:

Trip Planner

Search our weather history database for the weather conditions in past years. The results will help you decide how hot, cold, wet, or windy it might be!

Date:

Astronomy

Feb. 22, 2013 Rise Set
Actual Time 6:51 AM MST 5:34 PM MST
Civil Twilight 6:20 AM MST 6:05 PM MST
Nautical Twilight 5:45 AM MST 6:41 PM MST
Astronomical Twilight 5:09 AM MST 7:16 PM MST
Moon 2:41 PM MST (2/22) 4:46 AM MST (2/22)
Length of Visible Light 11h 45m
Length of Day
10h 43m
Waxing Gibbous, 90% of the Moon is Illuminated
Feb 22
Waxing Gibbous
Feb 25
Full
Mar 4
Last Quarter
Mar 11
New
Mar 19
First Quarter

Hourly Weather History & Observations

Time (MST) Temp. Windchill Dew Point Humidity Pressure Visibility Wind Dir Wind Speed Gust Speed Precip Events Conditions
12:15 AM 19.4 °F 10.4 °F 15.8 °F 86% 29.92 in 10.0 mi South 6.9 mph - N/A   Clear
12:35 AM 19.4 °F 10.4 °F 17.6 °F 93% 29.92 in 10.0 mi South 6.9 mph - N/A   Clear
12:55 AM 19.4 °F 9.5 °F 17.6 °F 93% 29.91 in 10.0 mi South 8.1 mph - N/A   Clear
1:15 AM 19.4 °F 10.4 °F 15.8 °F 86% 29.90 in 10.0 mi South 6.9 mph - N/A   Clear
1:35 AM 19.4 °F 11.5 °F 15.8 °F 86% 29.90 in 10.0 mi South 5.8 mph - N/A   Clear
1:55 AM 19.4 °F 12.8 °F 15.8 °F 86% 29.90 in 10.0 mi South 4.6 mph - N/A   Mostly Cloudy
2:16 AM 17.6 °F 8.2 °F 15.8 °F 93% 29.89 in 10.0 mi South 6.9 mph - N/A   Scattered Clouds
2:35 AM 17.6 °F 9.3 °F 15.8 °F 93% 29.89 in 10.0 mi South 5.8 mph - N/A   Clear
2:55 AM 17.6 °F 8.2 °F 12.2 °F 79% 29.89 in 10.0 mi SSW 6.9 mph - N/A   Clear
3:15 AM 15.8 °F 6.1 °F 10.4 °F 79% 29.88 in 10.0 mi SW 6.9 mph - N/A   Clear
3:35 AM 15.8 °F 7.2 °F 12.2 °F 86% 29.88 in 10.0 mi SW 5.8 mph - N/A   Clear
3:55 AM 15.8 °F 8.6 °F 10.4 °F 79% 29.88 in 10.0 mi South 4.6 mph - N/A   Clear
4:35 AM 17.6 °F 12.3 °F 10.4 °F 73% 29.88 in 10.0 mi South 3.5 mph - N/A   Clear
4:55 AM 15.8 °F - 12.2 °F 86% 29.88 in 10.0 mi Calm Calm - N/A   Partly Cloudy
5:15 AM 15.8 °F 10.2 °F 10.4 °F 79% 29.88 in 10.0 mi SSE 3.5 mph - N/A   Clear
5:55 AM 15.8 °F 7.2 °F 10.4 °F 79% 29.88 in 10.0 mi South 5.8 mph - N/A   Clear
6:15 AM 15.8 °F 10.2 °F 12.2 °F 86% 29.88 in 10.0 mi South 3.5 mph - N/A   Clear
6:35 AM 12.2 °F -0.2 °F 8.6 °F 85% 29.88 in 10.0 mi SSW 9.2 mph - N/A   Clear
7:55 AM 19.4 °F 11.5 °F 17.6 °F 93% 29.89 in 10.0 mi SSW 5.8 mph - N/A   Clear
8:15 AM 21.2 °F 11.7 °F 17.6 °F 86% 29.90 in 10.0 mi South 8.1 mph - N/A   Clear
8:35 AM 21.2 °F 11.7 °F 17.6 °F 86% 29.90 in 10.0 mi South 8.1 mph - N/A   Clear
8:55 AM 21.2 °F 10.1 °F 19.4 °F 93% 29.89 in 10.0 mi South 10.4 mph - N/A   Clear
9:15 AM 23.0 °F 11.7 °F 19.4 °F 86% 29.88 in 10.0 mi South 11.5 mph - N/A   Clear
9:35 AM 24.8 °F 14.6 °F 19.4 °F 80% 29.88 in 10.0 mi South 10.4 mph - N/A   Clear
9:55 AM 26.6 °F 18.2 °F 21.2 °F 80% 29.88 in 10.0 mi South 8.1 mph - N/A   Scattered Clouds
10:15 AM 28.4 °F 19.1 °F 21.2 °F 74% 29.88 in 10.0 mi South 10.4 mph - N/A   Mostly Cloudy
10:35 AM 30.2 °F 21.3 °F 21.2 °F 69% 29.88 in 10.0 mi SSW 10.4 mph - N/A   Mostly Cloudy
10:55 AM 30.2 °F 21.3 °F 21.2 °F 69% 29.87 in 10.0 mi SSW 10.4 mph - N/A   Overcast
11:15 AM 32.0 °F 24.2 °F 21.2 °F 64% 29.87 in 10.0 mi SSW 9.2 mph - N/A   Scattered Clouds
11:35 AM 33.8 °F 26.4 °F 21.2 °F 60% 29.86 in 10.0 mi South 9.2 mph - N/A   Clear
11:55 AM 35.6 °F 28.6 °F 23.0 °F 60% 29.86 in 10.0 mi SSW 9.2 mph - N/A   Clear
12:15 PM 37.4 °F 32.1 °F 23.0 °F 56% 29.84 in 10.0 mi SSW 6.9 mph - N/A   Clear
12:35 PM 37.4 °F 30.8 °F 23.0 °F 56% 29.83 in 10.0 mi South 9.2 mph - N/A   Clear
12:55 PM 39.2 °F 33.0 °F 23.0 °F 52% 29.81 in 10.0 mi South 9.2 mph - N/A   Clear
1:15 PM 39.2 °F 32.0 °F 21.2 °F 49% 29.80 in 10.0 mi South 11.5 mph - N/A   Clear
1:35 PM 42.8 °F 37.0 °F 21.2 °F 42% 29.79 in 10.0 mi SSW 10.4 mph 16.1 mph N/A   Clear
1:55 PM 42.8 °F 37.5 °F 19.4 °F 39% 29.79 in 10.0 mi South 9.2 mph - N/A   Clear
2:15 PM 41.0 °F 34.3 °F 19.4 °F 42% 29.78 in 10.0 mi West 11.5 mph - N/A   Mostly Cloudy
2:35 PM 42.8 °F 36.6 °F 19.4 °F 39% 29.77 in 10.0 mi SW 11.5 mph - N/A   Mostly Cloudy
3:15 PM 44.6 °F 38.1 °F 21.2 °F 39% 29.76 in 10.0 mi West 13.8 mph - N/A   Mostly Cloudy
3:35 PM 42.8 °F 38.0 °F 19.4 °F 39% 29.76 in 10.0 mi SW 8.1 mph - N/A   Mostly Cloudy
3:55 PM 42.8 °F 37.5 °F 17.6 °F 36% 29.76 in 10.0 mi West 9.2 mph - N/A   Mostly Cloudy
4:15 PM 42.8 °F 37.5 °F 17.6 °F 36% 29.76 in 10.0 mi West 9.2 mph - N/A   Partly Cloudy
4:35 PM 42.8 °F 37.5 °F 17.6 °F 36% 29.75 in 10.0 mi WSW 9.2 mph - N/A   Clear
4:55 PM 39.2 °F 34.2 °F 17.6 °F 42% 29.76 in 10.0 mi West 6.9 mph - N/A   Clear
5:15 PM 37.4 °F 32.8 °F 17.6 °F 45% 29.76 in 10.0 mi West 5.8 mph - N/A   Clear
5:35 PM 35.6 °F 30.7 °F 15.8 °F 44% 29.75 in 10.0 mi WSW 5.8 mph - N/A   Clear
5:55 PM 35.6 °F 30.7 °F 15.8 °F 44% 29.75 in 10.0 mi WSW 5.8 mph - N/A   Clear
6:15 PM 32.0 °F 28.7 °F 15.8 °F 51% 29.75 in 10.0 mi WSW 3.5 mph - N/A   Clear
6:35 PM 32.0 °F 28.7 °F 19.4 °F 60% 29.75 in 10.0 mi WSW 3.5 mph - N/A   Clear
6:55 PM 30.2 °F - 19.4 °F 64% 29.74 in 10.0 mi Calm Calm - N/A   Clear
7:15 PM 30.2 °F 25.4 °F 17.6 °F 60% 29.73 in 10.0 mi SSE 4.6 mph - N/A   Clear
7:35 PM 28.4 °F 23.3 °F 15.8 °F 59% 29.73 in 10.0 mi SSE 4.6 mph - N/A   Clear
7:55 PM 30.2 °F 24.3 °F 17.6 °F 60% 29.72 in 10.0 mi SSE 5.8 mph - N/A   Clear
8:15 PM 30.2 °F 23.4 °F 17.6 °F 60% 29.71 in 10.0 mi South 6.9 mph - N/A   Clear
8:35 PM 28.4 °F 22.2 °F 17.6 °F 64% 29.71 in 10.0 mi South 5.8 mph - N/A   Clear
8:55 PM 26.6 °F 18.2 °F 17.6 °F 69% 29.70 in 10.0 mi South 8.1 mph - N/A   Clear
9:35 PM 26.6 °F 19.1 °F 19.4 °F 74% 29.70 in 10.0 mi South 6.9 mph - N/A   Clear
9:55 PM 26.6 °F 19.1 °F 17.6 °F 69% 29.69 in 10.0 mi South 6.9 mph - N/A   Clear
10:35 PM 26.6 °F 19.1 °F 17.6 °F 69% 29.68 in 10.0 mi South 6.9 mph - N/A   Clear
11:15 PM 26.6 °F 21.2 °F 17.6 °F 69% 29.67 in 10.0 mi South 4.6 mph - N/A   Clear
11:35 PM 26.6 °F 19.1 °F 17.6 °F 69% 29.66 in 10.0 mi South 6.9 mph - N/A   Clear
11:55 PM 24.8 °F 16.9 °F 17.6 °F 74% 29.66 in 10.0 mi South 6.9 mph - N/A   Clear